This is the latest recevied weather packets stored in our database for station/object WA7CUG. If no packets are shown the sender has not sent any weather packets the latest 10 day(s).
| Time | Temp. | Humidity | Pressure | Rain* | Wind** | Luminosity | Snow |
|---|---|---|---|---|---|---|---|
| 1777734506 | 13.33° C | 69% | 1018.3 hPa | 0 mm | - | 126 W/m² | - |
| 1777734202 | 13.33° C | 70% | 1018.4 hPa | 0 mm | - | 123 W/m² | - |
| 1777733899 | 12.78° C | 71% | 1018.4 hPa | 0 mm | - | 124 W/m² | - |
| 1777733596 | 12.22° C | 73% | 1018.4 hPa | 0 mm | - | 112 W/m² | - |
| 1777733292 | 11.67° C | 76% | 1018.2 hPa | 0 mm | - | 104 W/m² | - |
| 1777732989 | 12.22° C | 78% | 1018.2 hPa | 0 mm | - | 105 W/m² | - |
| 1777732685 | 11.67° C | 75% | 1018.2 hPa | 0 mm | - | 104 W/m² | - |
| 1777732382 | 11.67° C | 79% | 1018.4 hPa | 0 mm | - | 102 W/m² | - |
| 1777732080 | 11.11° C | 77% | 1018 hPa | 0 mm | - | 97 W/m² | - |
| 1777731776 | 11.11° C | 77% | 1018.3 hPa | 0 mm | - | 91 W/m² | - |
| 1777731473 | 10.56° C | 77% | 1018.1 hPa | 0 mm | - | 85 W/m² | - |
| 1777731172 | 10.56° C | 78% | 1018.1 hPa | 0 mm | - | 78 W/m² | - |
| 1777730869 | 11.67° C | 78% | 1018.1 hPa | 0 mm | - | 69 W/m² | - |
| 1777730567 | 11.11° C | 73% | 1018.2 hPa | 0 mm | - | 59 W/m² | - |
| 1777730262 | 10.56° C | 78% | 1018.2 hPa | 0 mm | - | 46 W/m² | - |
| 1777729959 | 11.11° C | 77% | 1018.1 hPa | 0 mm | - | 38 W/m² | - |
| 1777729655 | 11.11° C | 75% | 1018 hPa | 0 mm | - | 32 W/m² | - |
| 1777729352 | 10.56° C | 76% | 1017.9 hPa | 0 mm | - | 30 W/m² | - |
| 1777729049 | 10.56° C | 76% | 1018 hPa | 0 mm | - | 31 W/m² | - |
| 1777728746 | 10.56° C | 78% | 1018.1 hPa | 0 mm | - | 34 W/m² | - |
| 1777728442 | 10.56° C | 77% | 1017.9 hPa | 0 mm | - | 30 W/m² | - |
| 1777728140 | 10° C | 80% | 1017.6 hPa | 0 mm | - | 27 W/m² | - |
| 1777727837 | 10° C | 78% | 1017.7 hPa | 0 mm | - | 21 W/m² | - |
| 1777727534 | 10° C | 78% | 1017.9 hPa | 0 mm | - | 18 W/m² | - |
| 1777727231 | 10° C | 76% | 1017.8 hPa | 0 mm | - | 15 W/m² | - |
* Rain latest hour (hover to see other rain measurements)
** Current wind speed in m/s (hover to see current wind gust speed)